Tracking 25734 objects as of 28-May-2022
HD Live streaming from Space Station
objects crossing your sky now

DELTA 1 DEB

Track DELTA 1 DEB now!
10-day predictions


NORAD ID: 28266
Int'l Code: 1968-055L
Perigee: 691.0 km
Apogee: 3,948.3 km
Inclination: 120.7 °
Period: 134.4 minutes
Semi major axis: 8690 km
RCS: 0.003 m2 (small)
Launch date: July 4, 1968
Source: United States (US)
Launch site: AIR FORCE WESTERN TEST RANGE (AFWTR)

Note: This is SATELLITE DEBRIS
aabbcc
Your satellite tracking list
Your tracking list is empty




NASA's NSSDC Master Catalog

Two Line Element Set (TLE):
1 28266U 68055L   22146.15418582  .00010636  00000-0  16967-1 0  9993
2 28266 120.6504 109.9762 1874030  50.4277 324.7764 10.71582503724688
Source of the keplerian elements: AFSPC